EHI
0 5 9 7 1 0 0 1 4 8 9 5 3 2 1 0 0 0 0 0 0 0 0 0 0 0 0 0 0 0 0 0 0 0 0 0 0 0 0 0 0 0 0
0 4 11 10 5 2 1 0 2 5 6 4 2 1 0 0 0 0 0 0 0 0 0 0 0 0 0 0 0 0 0 0 0 0 0 0 0 0 0 0 0 0 0
0 2 9 15 13 7 4 1 1 3 4 2 1 0 0 0 0 0 0 0 0 0 0 0 0 0 0 0 0 0 0 0 0 0 0 0 0 0 0 0 0 0 0
0 0 8 20 23 17 12 7 4 4 3 2 1 1 1 0 0 0 0 0 0 0 0 0 0 0 0 0 0 0 0 0 0 0 0 0 0 0 0 0 0 0 0
0 0 11 28 33 28 22 17 11 6 3 2 2 2 2 1 0 0 0 0 0 0 0 0 0 0 0 0 0 0 0 0 0 0 0 0 0 0 0 0 0 0 0
0 0 13 33 40 35 31 25 18 10 4 3 3 3 2 1 0 0 0 0 0 0 0 0 0 0 0 0 0 0 0 0 0 0 0 0 0 0 0 0 0 0 0
1 0 13 34 42 38 35 30 22 13 7 4 3 2 1 0 0 0 0 0 0 0 0 0 0 0 0 0 0 0 0 0 0 0 0 0 0 0 0 0 0 0 0
1 1 10 27 36 36 34 30 23 15 8 5 3 1 0 0 0 0 0 0 0 0 0 0 0 0 0 0 0 0 0 0 0 0 0 0 0 0 0 0 0 0 1
2 3 6 14 23 27 29 28 23 15 9 5 2 1 0 0 0 0 0 0 0 0 0 0 0 0 0 0 0 0 0 0 0 0 0 0 0 0 0 0 0 1 2
5 6 7 11 15 18 22 24 24 19 12 6 3 1 1 0 0 0 0 0 0 0 0 0 0 0 0 0 0 0 0 0 0 0 0 0 0 0 0 0 0 1 2
6 9 12 15 17 16 17 19 22 21 15 9 5 3 2 1 0 0 0 0 0 0 0 0 0 0 0 0 0 0 0 0 0 0 0 0 0 0 0 0 1 1 1
4 7 11 14 17 17 14 13 15 17 15 11 8 5 4 2 1 0 0 0 0 0 0 0 0 0 0 0 0 0 0 0 0 0 0 0 0 0 0 0 1 0 0
1 2 5 9 12 14 12 8 9 13 13 12 9 6 5 4 2 0 0 0 0 0 0 0 0 0 0 1 1 0 0 0 0 0 0 0 0 0 0 0 0 0 0
0 0 1 4 9 12 9 5 6 10 13 12 9 6 6 6 4 1 1 0 0 0 0 0 0 0 0 1 1 0 0 0 0 0 0 0 0 1 1 1 0 0 0
1 1 1 3 7 11 9 5 3 6 9 10 7 5 6 7 5 3 2 1 0 0 1 1 1 0 0 1 1 0 0 0 0 0 0 0 1 2 2 2 2 1 1
3 2 2 2 5 9 9 6 3 2 4 5 4 3 5 7 7 5 3 1 1 1 2 2 1 0 0 0 0 0 0 0 0 0 0 0 1 3 3 3 4 4 3
8 6 3 2 4 6 8 7 4 2 1 1 1 1 2 6 8 7 5 4 5 6 6 4 3 3 3 2 2 1 0 1 2 1 1 2 2 2 3 3 4 5 5
16 12 10 10 9 8 10 11 10 8 6 5 4 3 3 5 9 12 11 10 14 17 16 13 13 13 10 6 4 2 2 2 3 3 4 4 4 2 2 2 2 3 4
20 20 20 21 19 17 17 19 21 21 18 17 16 12 10 11 15 18 18 19 24 29 27 25 28 28 21 11 6 4 4 3 3 4 5 5 5 3 1 0 1 1 2
22 24 25 27 28 26 24 25 27 27 28 29 28 23 19 20 22 25 25 27 33 36 32 33 37 35 26 16 9 6 5 3 2 3 4 4 4 2 0 0 1 1 2
18 21 24 27 30 30 29 27 26 27 29 29 27 23 19 18 20 24 27 31 36 37 33 34 38 34 26 18 12 8 5 2 1 2 2 2 1 0 0 1 2 2 2
11 14 19 23 26 28 28 26 23 21 21 18 14 13 13 12 13 15 18 22 27 30 29 32 34 31 24 18 13 10 5 1 0 0 0 0 0 0 0 1 1 2 2
6 8 11 15 18 20 21 19 16 13 11 7 4 4 6 7 7 7 8 9 13 18 21 24 27 27 22 17 12 9 6 2 0 0 0 0 0 0 1 0 1 1 1
5 6 7 9 11 12 13 12 11 9 5 2 0 0 2 3 3 3 2 3 5 9 11 13 17 20 18 14 9 7 5 3 1 0 0 0 0 0 0 0 0 0 0
6 6 6 7 7 8 8 8 8 7 3 1 0 0 0 1 1 1 0 1 2 4 5 5 8 11 13 11 7 5 4 3 2 0 0 0 0 0 0 0 0 0 0
6 6 6 6 6 5 5 5 5 4 2 0 0 0 0 0 0 0 0 0 1 2 2 2 3 6 8 7 6 5 4 5 4 1 0 0 0 0 0 0 0 0 0
Wind_Speed
7 10 18 18 17 16 16 16 16 16 16 15 15 14 14 13 12 11 10 10 9 8 8 8 8 8 9 9 9 10 10 10 10 10 10 10 9 9 9 10 10 8 11
12 13 19 18 17 17 16 15 15 15 15 15 14 13 13 12 11 11 10 9 9 8 8 7 7 7 8 8 8 9 9 8 8 8 8 7 7 7 8 9 9 6 10
14 12 16 18 18 17 16 15 15 15 14 14 13 12 12 11 11 10 9 9 8 8 8 7 7 7 7 7 7 8 7 7 7 7 6 3 4 6 8 8 9 9 10
13 11 13 19 18 17 16 15 15 14 14 13 12 12 11 10 10 9 9 8 8 8 7 7 7 7 7 6 6 6 6 6 6 6 3 2 2 4 6 8 9 10 10
11 9 13 20 18 18 17 15 15 14 13 13 12 11 10 10 9 9 8 8 7 7 7 7 7 7 7 6 6 5 5 5 5 4 2 2 2 4 7 8 9 10 10
10 9 12 20 18 18 17 16 15 14 13 12 11 11 10 10 9 9 8 8 8 7 7 7 7 7 7 7 6 6 6 5 4 2 2 3 3 6 9 10 11 11 11
10 8 10 19 18 17 17 16 15 14 13 12 11 11 10 10 10 9 9 9 9 8 8 8 8 8 8 7 7 7 7 7 4 4 4 4 5 8 11 12 13 13 13
11 9 8 18 18 17 16 16 15 14 13 12 12 11 11 10 10 10 10 10 10 10 10 9 9 9 9 9 9 8 8 8 6 5 5 5 7 9 11 13 13 14 14
9 7 6 8 12 16 16 15 15 14 13 12 12 12 11 11 11 11 11 11 11 11 11 11 11 11 11 10 10 10 10 10 7 4 6 5 8 10 11 13 14 15 15
7 6 5 6 6 6 8 14 15 14 13 13 12 12 12 12 12 12 11 11 12 12 12 13 12 12 12 11 11 12 12 10 7 7 5 7 11 12 13 13 14 16 16
9 7 6 5 5 5 5 10 12 13 13 12 11 13 12 6 5 7 10 12 14 14 14 14 14 14 13 12 13 13 12 6 7 6 6 10 13 14 14 14 15 16 16
13 12 8 7 6 5 6 5 4 4 5 6 4 5 4 4 4 7 8 14 15 15 15 15 15 14 12 6 9 12 6 8 7 7 7 13 14 15 15 15 15 15 16
11 11 10 9 7 7 5 3 3 2 3 4 5 5 4 3 4 5 3 6 8 10 8 9 9 7 7 6 6 6 8 7 6 6 8 14 14 15 15 14 14 14 16
8 10 9 9 8 8 5 3 3 3 3 4 5 6 5 4 5 5 5 5 5 4 5 6 5 7 8 9 9 9 9 7 6 6 7 14 14 14 14 14 14 14 14
9 10 8 8 9 8 6 4 4 4 5 5 4 5 7 6 7 6 6 5 6 6 6 6 7 8 9 9 9 9 10 10 9 8 6 13 14 14 15 15 15 14 13
9 10 8 9 9 7 6 5 4 4 5 4 5 7 8 7 7 7 7 6 7 7 7 7 8 8 7 7 8 9 9 9 9 9 8 9 13 13 13 15 15 14 14
8 8 9 9 8 7 7 6 5 4 4 5 6 7 8 9 9 8 7 7 7 7 7 6 8 7 6 7 8 9 8 9 9 9 8 7 7 10 13 14 13 13 13
6 7 7 7 8 8 7 6 5 5 5 5 5 6 8 10 10 8 8 8 7 6 5 6 6 6 6 6 7 7 7 7 9 9 8 7 6 6 9 13 14 13 13
6 6 6 5 6 7 7 6 5 5 5 5 5 5 7 8 9 8 8 8 7 6 6 7 6 5 6 7 7 7 7 7 8 9 9 9 8 8 7 10 14 14 14
6 6 6 6 5 5 4 3 3 4 4 4 5 5 7 6 7 7 7 8 7 6 6 6 8 6 5 6 7 7 6 7 7 8 9 8 8 9 8 8 7 8 12
5 6 5 5 4 3 2 2 2 4 3 3 4 5 5 5 5 5 5 6 6 6 8 8 7 8 7 4 4 5 6 7 8 7 7 7 8 8 8 8 6 6 5
4 5 5 5 4 3 3 2 2 2 2 2 2 3 3 4 4 4 4 5 5 5 7 7 7 5 4 5 5 3 4 4 4 6 6 7 8 6 7 8 6 6 5
5 5 5 5 4 3 2 1 0 1 2 2 2 2 3 4 4 4 4 4 4 4 5 7 7 7 6 5 6 5 4 5 2 2 4 5 5 4 5 4 6 5 5
5 4 4 4 3 2 2 2 2 2 2 2 2 3 4 4 4 4 4 4 4 4 5 6 6 6 7 7 5 7 6 4 4 3 2 3 3 4 4 4 4 4 4
4 4 4 3 3 2 2 2 2 2 2 2 2 4 4 4 4 4 4 4 5 4 6 7 6 7 6 7 6 5 6 6 6 5 4 2 2 2 2 2 2 2 2
3 3 3 3 3 2 2 2 2 3 2 3 3 3 3 3 4 4 5 5 6 5 6 7 7 8 7 8 7 6 5 5 6 6 7 4 3 1 1 1 1 2 1
Wind_Direction
165 162 163 158 153 149 145 140 136 134 133 132 133 134 134 134 133 133 131 130 128 127 125 121 117 115 117 118 117 115 115 117 119 121 119 117 117 120 121 119 118 116 118
152 159 162 159 155 153 150 147 144 142 140 140 140 139 139 138 137 135 135 135 135 134 133 132 130 128 127 126 123 122 122 124 128 129 125 121 121 128 133 131 130 132 129
147 157 161 160 158 157 155 154 152 150 149 148 147 146 145 144 143 143 142 143 143 142 142 142 142 140 138 136 133 132 132 134 138 138 126 111 126 142 152 147 147 144 140
148 154 159 163 161 160 160 160 160 158 157 156 155 155 154 154 154 154 153 154 155 155 155 157 157 155 154 151 149 146 146 148 152 150 135 150 172 163 168 167 164 161 156
148 153 165 165 165 164 165 166 167 167 166 165 165 166 167 168 170 170 169 170 172 172 172 174 174 173 172 172 171 171 172 175 182 171 169 204 230 209 195 190 186 180 173
151 156 171 168 169 169 170 172 174 174 175 175 176 178 181 184 187 188 188 190 193 194 193 192 192 193 194 195 195 198 201 207 208 203 221 231 229 232 224 214 206 199 190
156 162 174 171 173 174 175 177 179 181 183 185 187 190 193 198 202 205 206 208 209 212 213 213 213 214 215 216 216 218 221 227 217 217 232 239 239 242 237 228 219 211 203
160 162 172 176 177 179 180 182 184 187 190 193 196 200 204 209 213 217 220 221 222 225 227 228 229 230 231 232 234 235 236 241 241 231 231 237 246 249 241 232 225 220 214
158 161 172 177 180 183 185 187 190 193 197 201 205 209 213 218 222 226 230 231 232 233 236 238 239 241 241 243 246 249 250 251 249 238 245 243 249 252 247 240 231 226 222
159 168 173 173 175 180 188 195 196 200 204 208 213 217 221 226 229 233 235 239 241 242 243 246 247 249 250 251 253 256 259 262 256 248 246 248 252 254 252 249 240 233 227
177 183 181 178 176 176 184 200 201 206 209 213 219 224 226 229 236 243 245 243 247 250 251 252 253 254 256 257 258 259 263 254 255 255 250 251 253 254 253 251 245 239 232
190 192 191 187 182 177 194 199 200 207 210 212 211 225 226 218 228 241 251 253 254 255 256 257 255 257 259 256 260 264 259 257 256 257 255 256 256 254 253 251 248 243 237
191 192 196 196 191 189 196 190 194 202 207 216 218 220 225 228 233 242 244 257 260 262 261 261 260 252 247 246 249 250 254 258 257 257 258 259 258 258 256 254 252 249 243
188 197 196 196 197 199 199 201 197 204 212 220 225 223 223 232 236 238 240 241 243 247 249 251 250 250 249 248 249 253 255 252 252 252 256 259 259 260 261 262 258 255 249
192 196 194 193 199 200 203 210 209 214 222 227 228 227 225 233 240 241 243 241 242 240 241 245 246 249 251 252 250 251 254 253 252 249 252 257 259 260 260 261 261 259 252
197 197 191 195 198 197 206 212 220 219 223 231 233 231 226 230 236 237 241 241 242 239 238 240 244 246 248 249 251 250 251 252 252 250 248 255 257 259 262 265 263 259 251
195 191 192 197 192 196 207 215 224 229 228 232 239 236 231 230 232 234 237 239 241 239 238 242 246 245 247 247 250 250 249 247 248 248 247 246 252 257 259 261 258 254 247
180 180 190 199 190 198 205 213 226 229 231 238 243 245 239 236 234 234 236 240 238 233 233 238 240 241 243 245 249 250 246 244 247 246 245 243 240 246 253 256 256 251 245
172 166 169 174 181 198 204 213 229 238 237 239 241 250 251 246 241 235 238 241 235 232 231 240 236 224 236 244 249 252 247 245 246 248 246 244 240 239 242 250 253 253 247
151 154 163 169 180 184 192 203 231 247 244 242 246 248 254 252 248 239 240 242 237 237 236 233 239 228 228 235 250 259 251 246 243 242 246 247 243 243 243 247 249 254 250
143 150 158 167 180 167 165 192 214 237 243 244 244 250 257 261 262 253 253 249 238 236 240 236 233 234 232 212 233 262 261 247 246 245 243 246 248 245 242 244 244 243 246
156 157 160 174 180 181 183 191 210 237 257 255 269 284 283 284 279 272 265 263 255 252 251 245 235 233 230 197 207 233 276 287 254 243 236 238 243 240 243 243 238 237 234
177 179 177 181 182 185 186 155 331 331 319 316 318 313 317 314 305 295 286 278 271 260 258 252 236 232 240 223 206 205 216 238 266 266 242 236 236 237 244 245 237 232 226
204 192 182 178 177 177 166 174 194 220 254 265 283 294 308 311 312 314 305 295 286 273 268 265 251 237 237 239 225 219 221 204 209 256 258 242 235 236 242 246 241 223 208
209 193 185 172 174 176 173 182 194 230 244 280 297 305 310 314 315 317 315 308 296 284 276 271 268 253 241 240 231 218 226 228 220 225 247 240 236 241 241 240 228 207 193
225 206 193 186 202 202 197 198 206 231 255 284 301 307 309 309 310 314 316 309 300 291 284 277 269 260 251 247 240 224 210 210 209 213 225 225 219 223 234 241 210 191 173